This demonstration page uses our WeatherBlox Daily Observations layout. Learn more.

Left ArrowRight Arrow

34.74481, -87.66753

Hourly Observations for July 18, 2019

Temp ( °F °C ) Dew Point ( °F °C ) Humidity (%) Winds ( mph kmh ) Pressure ( in mb ) Visibility ( mi km ) Precip ( " mm )
12:53 am 00:53 Mostly Cloudy 80 26.7 77 25 90 90 undefined N/A 30.04 1017 10 16 0.00 0.00
1:53 am 01:53 Mostly Cloudy 81 27.2 77 25 88 88 undefined N/A 30.05 1018 10 16 0.00 0.00
2:02 am 02:02 Cloudy with Nearby Thunderstorms 79 26.1 73 22.8 82 82 VRB 6 9 30.07 1018 10 16 0.00 0.00
2:11 am 02:11 Cloudy 79 26.1 72 22.2 79 79 NNE 10 17 30.08 1018 10 16 0.00 0.00
2:22 am 02:22 Cloudy with Nearby Thunderstorms 77 25 71 21.7 82 82 N 10 17 30.08 1019 10 16 0.00 0.00
2:50 am 02:50 Mostly Cloudy 75 24 72 22 89 89 SE 3 6 30.06 1018 10 16 0.01 0.25
2:53 am 02:53 Mostly Cloudy 76 24.4 71 21.7 85 85 ESE 3 6 30.06 1018 10 16 0.01 0.25
3:53 am 03:53 Clear 75 23.9 72 22.2 90 90 S 5 7 30.02 1017 10 16 0.00 0.00
4:53 am 04:53 Clear with Light Rain 76 24.4 72 22.2 88 88 SSW 5 7 29.99 1016 10 16 0.00 0.03
5:53 am 05:53 Sunny 76 24.4 73 22.8 91 91 Calm 30.00 1016 10 16 0.01 0.25
6:53 am 06:53 Sunny 76 24.4 73 22.8 91 91 Calm 30.02 1017 10 16 0.00 0.00
7:53 am 07:53 Sunny 78 25.6 74 23.3 87 87 Calm 30.04 1017 10 16 0.00 0.00
8:53 am 08:53 Sunny 82 27.8 76 24.4 82 82 WSW 6 9 30.05 1018 10 16 0.00 0.00
9:53 am 09:53 Sunny 84 28.9 75 23.9 74 74 W 7 11 30.05 1018 10 16 0.00 0.00
10:53 am 10:53 Partly Cloudy 87 30.6 75 23.9 67 67 W 10 17 30.05 1018 10 16 0.00 0.00
11:53 am 11:53 Mostly Sunny 89 31.7 75 23.9 63 63 WNW 10 17 30.05 1018 10 16 0.00 0.00
12:53 pm 12:53 Mostly Cloudy 91 32.8 75 23.9 59 59 WNW 6 9 30.03 1017 10 16 0.00 0.00
1:48 pm 13:48 Mostly Cloudy with Nearby Thunderstorms 90 32 75 24 63 63 NW 3 6 30.02 1016 10 16 0.00 0.00
1:53 pm 13:53 Mostly Cloudy with Nearby Thunderstorms 92 33.3 74 23.3 56 56 WNW 10 17 30.02 1017 10 16 0.00 0.00
2:03 pm 14:03 Partly Cloudy 93 33.9 74 23.3 54 54 W 7 11 30.00 1016 10 16 0.00 0.00
2:53 pm 14:53 Partly Cloudy 93 33.9 74 23.3 54 54 W 8 13 30.00 1016 10 16 0.00 0.00
3:53 pm 15:53 Partly Cloudy 93 33.9 75 23.9 56 56 SW 7 11 29.98 1015 10 16 0.00 0.00
4:53 pm 16:53 Mostly Sunny 93 33.9 74 23.3 54 54 WSW 10 17 29.97 1015 10 16 0.00 0.00
5:53 pm 17:53 Mostly Sunny 92 33.3 73 22.8 54 54 WSW 10 17 29.97 1015 10 16 0.00 0.00
6:53 pm 18:53 Sunny 89 31.7 75 23.9 63 63 WSW 8 13 29.98 1015 10 16 0.00 0.00
7:53 pm 19:53 Mostly Cloudy 81 27.2 72 22.2 74 74 ENE 12 19 30.00 1016 10 16 0.00 0.00
8:31 pm 20:31 Mostly Cloudy with Nearby Thunderstorms 80 26.7 73 22.8 79 79 E 7 11 30.00 1016 10 16 0.00 0.00
8:53 pm 20:53 Mostly Cloudy with Thunderstorms 79 26.1 74 23.3 85 85 ESE 9 15 30.02 1017 10 16 0.00 0.03
9:53 pm 21:53 Cloudy with Thunderstorms 76 24.4 73 22.8 91 91 ENE 6 9 30.03 1017 10 16 0.29 7.37
10:09 pm 22:09 Partly Cloudy with Light Rain 77 25 74 23.3 90 90 Calm 30.02 1017 10 16 0.02 0.51
10:53 pm 22:53 Mostly Clear 77 25 75 23.9 94 94 SSE 5 7 30.01 1016 10 16 0.02 0.51
11:53 pm 23:53 Clear 77 25 75 23.9 94 94 SSE 3 6 30.01 1016 10 16 0.00 0.00

Powered by AerisWeather